• In Deutschland
  • Länderverzeichnis
  • Für 7 Tage
  • Wassertemperatur
  • Satellitenkarten
  • Wetterkarte
  • Widgets
  • user-avatar
    Anmelden

    Stündliche Wetter Naftalan

    Heute, 17 Juli, Dienstag

    Zeit Temperatur Niederschläge Wind Luftdruck Luftfeuchtigkeit
    00:00 +28°C° 0 mm 4 m/S 756 mmHg 68%
    01:00 +28°C° 0 mm 4 m/S 756 mmHg 68%
    02:00 +28°C° 0 mm 4 m/S 756 mmHg 68%
    03:00 +28°C° 0 mm 4 m/S 756 mmHg 65%
    04:00 +29°C° 0 mm 4 m/S 756 mmHg 63%
    05:00 +29°C° 0 mm 4 m/S 757 mmHg 60%
    06:00 +29°C° 0 mm 4 m/S 757 mmHg 58%
    07:00 +30°C° 0 mm 4 m/S 757 mmHg 53%
    08:00 +32°C° 0 mm 4 m/S 757 mmHg 49%
    09:00 +32°C° 0 mm 4 m/S 757 mmHg 44%
    10:00 +33°C° 0 mm 4 m/S 757 mmHg 41%
    11:00 +34°C° 0 mm 4 m/S 756 mmHg 39%
    12:00 +35°C° 0 mm 4 m/S 756 mmHg 36%
    13:00 +35°C° 0 mm 4 m/S 756 mmHg 35%
    14:00 +36°C° 0 mm 4 m/S 756 mmHg 35%
    15:00 +36°C° 0 mm 4 m/S 756 mmHg 34%
    16:00 +35°C° 0,1 mm 4 m/S 756 mmHg 39%
    17:00 +34°C° 0,1 mm 3 m/S 756 mmHg 43%
    18:00 +33°C° 0,1 mm 3 m/S 756 mmHg 48%
    19:00 +31°C° 0,5 mm 2 m/S 756 mmHg 53%
    20:00 +29°C° 0,5 mm 2 m/S 756 mmHg 58%
    21:00 +28°C° 0,5 mm 2 m/S 757 mmHg 63%
    22:00 +28°C° 0,1 mm 2 m/S 757 mmHg 63%
    23:00 +28°C° 0,1 mm 2 m/S 757 mmHg 62%

    Morgen, 18 Juli, Mittwoch

    Zeit Temperatur Niederschläge Wind Luftdruck Luftfeuchtigkeit
    00:00 +28°C° 0,1 mm 1 m/S 757 mmHg 62%
    01:00 +28°C° 0 mm 1 m/S 757 mmHg 61%
    02:00 +27°C° 0 mm 1 m/S 757 mmHg 60%
    03:00 +27°C° 0 mm 1 m/S 757 mmHg 60%
    04:00 +28°C° 0 mm 1 m/S 757 mmHg 57%
    05:00 +28°C° 0 mm 1 m/S 757 mmHg 54%
    06:00 +29°C° 0 mm 1 m/S 757 mmHg 51%
    07:00 +30°C° 0 mm 1 m/S 757 mmHg 46%
    08:00 +32°C° 0 mm 1 m/S 757 mmHg 42%
    09:00 +33°C° 0 mm 1 m/S 757 mmHg 37%
    10:00 +35°C° 0 mm 2 m/S 756 mmHg 36%
    11:00 +36°C° 0 mm 3 m/S 756 mmHg 35%
    12:00 +37°C° 0 mm 4 m/S 756 mmHg 34%
    13:00 +37°C° 0 mm 4 m/S 755 mmHg 35%
    14:00 +37°C° 0 mm 5 m/S 755 mmHg 37%
    15:00 +37°C° 0 mm 5 m/S 754 mmHg 39%
    16:00 +36°C° 0 mm 5 m/S 754 mmHg 42%
    17:00 +35°C° 0 mm 4 m/S 754 mmHg 45%
    18:00 +34°C° 0 mm 4 m/S 754 mmHg 48%
    19:00 +32°C° 0,2 mm 4 m/S 754 mmHg 54%
    20:00 +30°C° 0,2 mm 3 m/S 755 mmHg 60%
    21:00 +29°C° 0,2 mm 3 m/S 755 mmHg 66%
    22:00 +29°C° 0,1 mm 2 m/S 755 mmHg 68%
    23:00 +28°C° 0,1 mm 2 m/S 755 mmHg 71%

    übermorgen, 19 Juli, Donnerstag

    Zeit Temperatur Niederschläge Wind Luftdruck Luftfeuchtigkeit
    00:00 +28°C° 0,1 mm 1 m/S 755 mmHg 73%
    01:00 +28°C° 0 mm 1 m/S 754 mmHg 74%
    02:00 +27°C° 0 mm 1 m/S 754 mmHg 75%
    03:00 +27°C° 0 mm 1 m/S 754 mmHg 76%
    04:00 +28°C° 0 mm 1 m/S 754 mmHg 72%
    05:00 +28°C° 0 mm 1 m/S 754 mmHg 69%
    06:00 +29°C° 0 mm 1 m/S 755 mmHg 66%
    07:00 +31°C° 0 mm 1 m/S 755 mmHg 59%
    08:00 +32°C° 0 mm 1 m/S 755 mmHg 51%
    09:00 +34°C° 0 mm 1 m/S 755 mmHg 44%
    10:00 +35°C° 0 mm 1 m/S 754 mmHg 41%
    11:00 +37°C° 0 mm 2 m/S 754 mmHg 38%
    12:00 +39°C° 0 mm 3 m/S 753 mmHg 34%
    13:00 +39°C° 0 mm 3 m/S 753 mmHg 34%
    14:00 +40°C° 0 mm 4 m/S 752 mmHg 33%
    15:00 +41°C° 0 mm 4 m/S 752 mmHg 32%
    16:00 +40°C° 0 mm 4 m/S 752 mmHg 36%
    17:00 +37°C° 0 mm 4 m/S 752 mmHg 39%
    18:00 +36°C° 0 mm 4 m/S 752 mmHg 42%
    19:00 +35°C° 0 mm 4 m/S 752 mmHg 49%
    20:00 +33°C° 0 mm 3 m/S 752 mmHg 55%
    21:00 +31°C° 0 mm 3 m/S 753 mmHg 61%
    22:00 +30°C° 0 mm 2 m/S 753 mmHg 62%
    23:00 +30°C° 0 mm 2 m/S 753 mmHg 62%

    20 Juli, Freitag

    Zeit Temperatur Niederschläge Wind Luftdruck Luftfeuchtigkeit
    00:00 +30°C° 0 mm 1 m/S 753 mmHg 63%
    01:00 +30°C° 0 mm 1 m/S 753 mmHg 63%
    02:00 +29°C° 0 mm 2 m/S 753 mmHg 63%
    03:00 +29°C° 0 mm 2 m/S 753 mmHg 63%
    04:00 +30°C° 0 mm 2 m/S 753 mmHg 61%
    05:00 +30°C° 0 mm 2 m/S 753 mmHg 59%
    06:00 +31°C° 0 mm 2 m/S 753 mmHg 57%
    07:00 +32°C° 0 mm 2 m/S 753 mmHg 51%
    08:00 +35°C° 0 mm 2 m/S 753 mmHg 45%
    09:00 +37°C° 0 mm 2 m/S 753 mmHg 39%
    10:00 +38°C° 0 mm 3 m/S 753 mmHg 36%
    11:00 +39°C° 0 mm 3 m/S 753 mmHg 33%
    12:00 +40°C° 0 mm 3 m/S 752 mmHg 31%
    13:00 +41°C° 0 mm 4 m/S 752 mmHg 30%
    14:00 +42°C° 0 mm 4 m/S 751 mmHg 30%
    15:00 +42°C° 0 mm 5 m/S 751 mmHg 29%
    16:00 +40°C° 0 mm 4 m/S 751 mmHg 33%
    17:00 +38°C° 0 mm 4 m/S 751 mmHg 37%
    18:00 +36°C° 0 mm 4 m/S 751 mmHg 41%
    19:00 +35°C° 0 mm 3 m/S 752 mmHg 45%
    20:00 +34°C° 0 mm 3 m/S 752 mmHg 50%
    21:00 +33°C° 0 mm 3 m/S 752 mmHg 55%
    22:00 +31°C° 0 mm 3 m/S 752 mmHg 55%
    23:00 +31°C° 0 mm 3 m/S 752 mmHg 54%

    21 Juli, Samstag

    Zeit Temperatur Niederschläge Wind Luftdruck Luftfeuchtigkeit
    00:00 +31°C° 0 mm 3 m/S 752 mmHg 54%
    01:00 +30°C° 0 mm 3 m/S 752 mmHg 55%
    02:00 +30°C° 0 mm 2 m/S 752 mmHg 55%
    03:00 +30°C° 0 mm 2 m/S 752 mmHg 56%
    04:00 +30°C° 0 mm 2 m/S 752 mmHg 54%
    05:00 +31°C° 0 mm 3 m/S 752 mmHg 52%
    06:00 +31°C° 0 mm 3 m/S 753 mmHg 50%
    07:00 +34°C° 0 mm 2 m/S 753 mmHg 45%
    08:00 +36°C° 0 mm 2 m/S 753 mmHg 40%
    09:00 +38°C° 0 mm 2 m/S 753 mmHg 35%
    10:00 +39°C° 0 mm 2 m/S 753 mmHg 32%
    11:00 +40°C° 0 mm 3 m/S 753 mmHg 29%
    12:00 +43°C° 0 mm 3 m/S 752 mmHg 26%
    13:00 +43°C° 0 mm 4 m/S 752 mmHg 26%
    14:00 +43°C° 0 mm 4 m/S 752 mmHg 26%
    15:00 +43°C° 0 mm 5 m/S 751 mmHg 26%
    16:00 +42°C° 0 mm 5 m/S 751 mmHg 29%
    17:00 +40°C° 0 mm 4 m/S 752 mmHg 32%
    18:00 +37°C° 0 mm 4 m/S 752 mmHg 35%
    19:00 +36°C° 0 mm 4 m/S 752 mmHg 39%
    20:00 +35°C° 0 mm 3 m/S 752 mmHg 42%
    21:00 +32°C° 0 mm 2 m/S 753 mmHg 46%
    22:00 +32°C° 0 mm 2 m/S 753 mmHg 45%
    23:00 +32°C° 0 mm 2 m/S 752 mmHg 45%

    22 Juli, Sonntag

    Zeit Temperatur Niederschläge Wind Luftdruck Luftfeuchtigkeit
    00:00 +31°C° 0 mm 2 m/S 752 mmHg 45%
    01:00 +31°C° 0 mm 2 m/S 752 mmHg 44%
    02:00 +31°C° 0 mm 2 m/S 752 mmHg 44%
    03:00 +30°C° 0 mm 1 m/S 752 mmHg 43%
    04:00 +31°C° 0 mm 2 m/S 752 mmHg 42%
    05:00 +32°C° 0 mm 2 m/S 753 mmHg 40%
    06:00 +32°C° 0 mm 2 m/S 753 mmHg 39%
    07:00 +35°C° 0 mm 2 m/S 753 mmHg 35%
    08:00 +37°C° 0 mm 2 m/S 753 mmHg 31%
    09:00 +39°C° 0 mm 2 m/S 753 mmHg 28%
    10:00 +40°C° 0 mm 3 m/S 753 mmHg 26%
    11:00 +42°C° 0 mm 3 m/S 752 mmHg 23%
    12:00 +43°C° 0 mm 4 m/S 752 mmHg 21%
    13:00 +43°C° 0 mm 4 m/S 752 mmHg 22%
    14:00 +43°C° 0 mm 5 m/S 751 mmHg 23%
    15:00 +44°C° 0 mm 6 m/S 751 mmHg 23%
    16:00 +41°C° 0 mm 5 m/S 751 mmHg 26%
    17:00 +40°C° 0 mm 5 m/S 751 mmHg 29%
    18:00 +37°C° 0 mm 5 m/S 751 mmHg 33%
    19:00 +36°C° 0 mm 4 m/S 751 mmHg 38%
    20:00 +34°C° 0 mm 3 m/S 751 mmHg 43%
    21:00 +32°C° 0 mm 2 m/S 752 mmHg 48%
    22:00 +32°C° 0 mm 2 m/S 752 mmHg 47%
    23:00 +31°C° 0 mm 2 m/S 751 mmHg 47%
    Mehr zeigen